When you browse on this site, cookies collect data to enhance your experience and personalize the content and advertising you see.
Visit our Privacy Policy to learn more. By continuing to use the site, you agree to this use of cookies and data.
  • Em Portugal
  • Lista de países
  • Para 7 dias
  • Temperatura da água
  • Mapas de satélite
  • Mapa do tempo
  • Widgets de tempo
  • user-avatar
    Iniciar Sessão

    Previsão horária em Novoazovsk

    Hoje, 23 Maio, Quinta-feira

    Tempo Temperatura Precipitação Vento Pressão Humidade
    00:00 +15°C° 0.3 mm 5 m/s 757 mmHg 87%
    01:00 +15°C° 0 mm 5 m/s 756 mmHg 87%
    02:00 +14°C° 0 mm 5 m/s 756 mmHg 86%
    03:00 +14°C° 0 mm 4 m/s 756 mmHg 87%
    04:00 +14°C° 0 mm 4 m/s 756 mmHg 87%
    05:00 +14°C° 0 mm 4 m/s 756 mmHg 86%
    06:00 +14°C° 0 mm 4 m/s 756 mmHg 86%
    07:00 +16°C° 0.2 mm 5 m/s 756 mmHg 81%
    08:00 +17°C° 0.2 mm 5 m/s 756 mmHg 76%
    09:00 +20°C° 0.2 mm 6 m/s 756 mmHg 71%
    10:00 +21°C° 0.2 mm 7 m/s 756 mmHg 67%
    11:00 +22°C° 0.2 mm 7 m/s 755 mmHg 63%
    12:00 +23°C° 0.2 mm 7 m/s 755 mmHg 59%
    13:00 +23°C° 0.2 mm 7 m/s 755 mmHg 59%
    14:00 +23°C° 0.2 mm 7 m/s 755 mmHg 59%
    15:00 +23°C° 0.2 mm 8 m/s 755 mmHg 58%
    16:00 +22°C° 0.4 mm 7 m/s 755 mmHg 62%
    17:00 +22°C° 0.4 mm 7 m/s 755 mmHg 65%
    18:00 +21°C° 0.4 mm 6 m/s 755 mmHg 68%
    19:00 +20°C° 0.1 mm 6 m/s 755 mmHg 73%
    20:00 +19°C° 0.1 mm 5 m/s 755 mmHg 77%
    21:00 +17°C° 0.1 mm 5 m/s 755 mmHg 82%
    22:00 +16°C° 0.1 mm 5 m/s 755 mmHg 83%
    23:00 +16°C° 0.1 mm 5 m/s 755 mmHg 84%

    Amanhã, 24 Maio, Sexta-feira

    Tempo Temperatura Precipitação Vento Pressão Humidade
    00:00 +16°C° 0.1 mm 5 m/s 755 mmHg 86%
    01:00 +16°C° 0 mm 5 m/s 755 mmHg 86%
    02:00 +15°C° 0 mm 5 m/s 755 mmHg 86%
    03:00 +15°C° 0 mm 4 m/s 755 mmHg 86%
    04:00 +15°C° 0 mm 4 m/s 756 mmHg 85%
    05:00 +16°C° 0 mm 3 m/s 756 mmHg 84%
    06:00 +17°C° 0 mm 3 m/s 756 mmHg 84%
    07:00 +18°C° 0 mm 3 m/s 756 mmHg 78%
    08:00 +20°C° 0 mm 3 m/s 756 mmHg 72%
    09:00 +21°C° 0 mm 3 m/s 756 mmHg 66%
    10:00 +22°C° 0 mm 3 m/s 756 mmHg 62%
    11:00 +23°C° 0 mm 4 m/s 756 mmHg 59%
    12:00 +26°C° 0 mm 4 m/s 756 mmHg 55%
    13:00 +26°C° 0 mm 4 m/s 756 mmHg 54%
    14:00 +26°C° 0 mm 4 m/s 756 mmHg 54%
    15:00 +26°C° 0 mm 4 m/s 756 mmHg 53%
    16:00 +25°C° 0 mm 4 m/s 756 mmHg 55%
    17:00 +24°C° 0 mm 3 m/s 755 mmHg 57%
    18:00 +24°C° 0 mm 3 m/s 755 mmHg 59%
    19:00 +21°C° 0 mm 2 m/s 755 mmHg 61%
    20:00 +20°C° 0 mm 2 m/s 756 mmHg 62%
    21:00 +20°C° 0 mm 1 m/s 756 mmHg 64%
    22:00 +20°C° 0 mm 1 m/s 756 mmHg 64%
    23:00 +19°C° 0 mm 1 m/s 756 mmHg 63%

    Depois de amanhã, 25 Maio, Sábado

    Tempo Temperatura Precipitação Vento Pressão Humidade
    00:00 +19°C° 0 mm 1 m/s 756 mmHg 63%
    01:00 +19°C° 0.1 mm 1 m/s 755 mmHg 64%
    02:00 +18°C° 0.1 mm 2 m/s 755 mmHg 64%
    03:00 +17°C° 0.1 mm 2 m/s 755 mmHg 65%
    04:00 +17°C° 0.4 mm 2 m/s 755 mmHg 68%
    05:00 +17°C° 0.4 mm 3 m/s 755 mmHg 72%
    06:00 +18°C° 0.4 mm 3 m/s 755 mmHg 75%
    07:00 +19°C° 0.1 mm 3 m/s 755 mmHg 72%
    08:00 +21°C° 0.1 mm 3 m/s 755 mmHg 69%
    09:00 +22°C° 0.1 mm 4 m/s 755 mmHg 66%
    10:00 +25°C° 0 mm 4 m/s 755 mmHg 62%
    11:00 +26°C° 0 mm 4 m/s 754 mmHg 57%
    12:00 +27°C° 0 mm 4 m/s 754 mmHg 53%
    13:00 +26°C° 0.9 mm 3 m/s 754 mmHg 56%
    14:00 +26°C° 0.9 mm 3 m/s 754 mmHg 59%
    15:00 +25°C° 0.9 mm 2 m/s 753 mmHg 62%
    16:00 +24°C° 4.6 mm 2 m/s 753 mmHg 71%
    17:00 +21°C° 4.6 mm 2 m/s 753 mmHg 80%
    18:00 +19°C° 4.6 mm 2 m/s 753 mmHg 88%
    19:00 +19°C° 0.3 mm 3 m/s 753 mmHg 88%
    20:00 +19°C° 0.3 mm 3 m/s 753 mmHg 89%
    21:00 +19°C° 0.3 mm 3 m/s 753 mmHg 89%
    22:00 +18°C° 0 mm 3 m/s 754 mmHg 89%
    23:00 +18°C° 0 mm 4 m/s 754 mmHg 90%

    26 Maio, Domingo

    Tempo Temperatura Precipitação Vento Pressão Humidade
    00:00 +18°C° 0 mm 4 m/s 754 mmHg 90%
    01:00 +18°C° 0 mm 4 m/s 754 mmHg 90%
    02:00 +17°C° 0 mm 4 m/s 754 mmHg 90%
    03:00 +17°C° 0 mm 3 m/s 754 mmHg 91%
    04:00 +17°C° 0.2 mm 4 m/s 754 mmHg 91%
    05:00 +17°C° 0.2 mm 4 m/s 754 mmHg 91%
    06:00 +17°C° 0.2 mm 4 m/s 755 mmHg 92%
    07:00 +18°C° 0.2 mm 4 m/s 755 mmHg 89%
    08:00 +19°C° 0.2 mm 5 m/s 755 mmHg 86%
    09:00 +19°C° 0.2 mm 5 m/s 755 mmHg 83%
    10:00 +20°C° 0.1 mm 6 m/s 755 mmHg 80%
    11:00 +21°C° 0.1 mm 7 m/s 755 mmHg 77%
    12:00 +22°C° 0.1 mm 7 m/s 756 mmHg 74%
    13:00 +22°C° 0 mm 7 m/s 756 mmHg 72%
    14:00 +23°C° 0 mm 7 m/s 755 mmHg 69%
    15:00 +23°C° 0 mm 7 m/s 755 mmHg 66%
    16:00 +23°C° 0 mm 7 m/s 755 mmHg 67%
    17:00 +23°C° 0 mm 7 m/s 755 mmHg 69%
    18:00 +22°C° 0 mm 7 m/s 756 mmHg 71%
    19:00 +21°C° 1.3 mm 6 m/s 756 mmHg 77%
    20:00 +20°C° 1.3 mm 6 m/s 756 mmHg 83%
    21:00 +19°C° 1.3 mm 5 m/s 757 mmHg 89%
    22:00 +19°C° 0.1 mm 5 m/s 757 mmHg 89%
    23:00 +19°C° 0.1 mm 5 m/s 757 mmHg 89%

    27 Maio, Segunda-feira

    Tempo Temperatura Precipitação Vento Pressão Humidade
    00:00 +18°C° 0.1 mm 4 m/s 757 mmHg 89%
    01:00 +18°C° 0 mm 4 m/s 758 mmHg 89%
    02:00 +18°C° 0 mm 4 m/s 758 mmHg 89%
    03:00 +17°C° 0 mm 3 m/s 759 mmHg 89%
    04:00 +18°C° 0 mm 3 m/s 759 mmHg 89%
    05:00 +18°C° 0 mm 3 m/s 759 mmHg 88%
    06:00 +18°C° 0 mm 2 m/s 760 mmHg 88%
    07:00 +20°C° 0 mm 2 m/s 760 mmHg 81%
    08:00 +21°C° 0 mm 2 m/s 760 mmHg 74%
    09:00 +24°C° 0 mm 2 m/s 761 mmHg 66%
    10:00 +25°C° 0 mm 3 m/s 761 mmHg 63%
    11:00 +26°C° 0 mm 3 m/s 761 mmHg 59%
    12:00 +27°C° 0 mm 4 m/s 761 mmHg 55%
    13:00 +27°C° 0 mm 4 m/s 761 mmHg 57%
    14:00 +27°C° 0 mm 5 m/s 761 mmHg 58%
    15:00 +27°C° 0 mm 5 m/s 761 mmHg 60%
    16:00 +26°C° 0 mm 5 m/s 761 mmHg 63%
    17:00 +25°C° 0 mm 5 m/s 761 mmHg 65%
    18:00 +23°C° 0 mm 4 m/s 761 mmHg 68%
    19:00 +22°C° 0 mm 4 m/s 762 mmHg 71%
    20:00 +21°C° 0 mm 3 m/s 762 mmHg 75%
    21:00 +19°C° 0 mm 3 m/s 762 mmHg 78%
    22:00 +19°C° 0 mm 2 m/s 762 mmHg 79%
    23:00 +20°C° 0 mm 1 m/s 762 mmHg 80%

    28 Maio, Terça-feira

    Tempo Temperatura Precipitação Vento Pressão Humidade
    00:00 +19°C° 0 mm 1 m/s 762 mmHg 81%
    01:00 +19°C° 0 mm 1 m/s 762 mmHg 83%
    02:00 +18°C° 0 mm 1 m/s 762 mmHg 84%
    03:00 +18°C° 0 mm 1 m/s 762 mmHg 86%
    04:00 +18°C° 0 mm 1 m/s 762 mmHg 85%
    05:00 +18°C° 0 mm 2 m/s 762 mmHg 84%
    06:00 +18°C° 0 mm 3 m/s 762 mmHg 83%
    07:00 +20°C° 0 mm 3 m/s 762 mmHg 78%
    08:00 +21°C° 0 mm 3 m/s 762 mmHg 72%
    09:00 +23°C° 0 mm 4 m/s 762 mmHg 67%
    10:00 +25°C° 0 mm 4 m/s 762 mmHg 65%
    11:00 +26°C° 0 mm 4 m/s 762 mmHg 63%
    12:00 +28°C° 0 mm 4 m/s 762 mmHg 61%
    13:00 +28°C° 0 mm 4 m/s 761 mmHg 59%
    14:00 +29°C° 0 mm 4 m/s 761 mmHg 58%
    15:00 +29°C° 0 mm 4 m/s 761 mmHg 56%
    16:00 +29°C° 0 mm 4 m/s 761 mmHg 58%
    17:00 +29°C° 0 mm 4 m/s 760 mmHg 60%
    18:00 +29°C° 0 mm 4 m/s 760 mmHg 62%
    19:00 +27°C° 0 mm 4 m/s 760 mmHg 66%
    20:00 +26°C° 0 mm 4 m/s 760 mmHg 70%
    21:00 +23°C° 0 mm 4 m/s 760 mmHg 74%
    22:00 +23°C° 0 mm 4 m/s 760 mmHg 75%
    23:00 +22°C° 0 mm 4 m/s 760 mmHg 76%
    Mostrar mais